Погода в Неа-Потидее

Греция     40°11′41″N   23°19′39″E
темп.,
°C
ветер,
м/с
пор.,
м/с
влажн.,
%
обл.,
%
осадки,
мм/ч
давл.,
гПа
погр.,
м
12 мая, ср
ср1200:00+16в22661 0.0 1015198
03:00+16всв21590 0.0 1013112
06:00+16св21570 0.0 1012116
09:00+17юв23623 0.0 1012308
12:00+18юв336178 0.0 1011339
15:00+19юв3360100 0.0 1009346
18:00+19вюв5561100 0.0 1008350
21:00+17в55650 0.0 1007280
13 мая, чт
чт1300:00+17в22630 0.0 1008188
03:00+17сз11611 0.0 1007120
06:00+17ссз33640 0.0 1007157
09:00+18зсз22660 0.0 1008241
12:00+18юз32690 0.0 1008267
15:00+20ю33590 0.0 1007238
18:00+21юв446265 0.0 1006250
21:00+19в44727 0.0 1007101
14 мая, пт
пт1400:00+18всв55772 0.0 1008180
03:00+18ссз22670 0.0 100883
06:00+18сз337198 0.0 1009159
09:00+19зсз23650 0.0 1011248
12:00+19зюз44630 0.0 1012326
15:00+20ююз335528 0.0 1012220
18:00+21ю335698 0.0 1011166
21:00+20вюв34690 0.0 101138
15 мая, сб
сб1500:00+19в55755 0.0 1012168
03:00+18всв44789 0.0 1011148
06:00+18в356893 0.0 1011187
09:00+19в6671100 0.0 1010379
12:00+20юв4568100 0.0 1010269
15:00+20зсз5561100 0.0 1010441
18:00+18ююз2369100 0.5 1008236
21:00+17в22708 0.6 1007174
16 мая, вс
вс1600:00+17всв43733 0.3 1006136
03:00+17сз457185 0.6 1006245
06:00+16ссз510685 0.0 1006545
09:00+18сз8125614 0.0 10071028
12:00+20сз810520 0.0 1008800
15:00+22зсз710491 0.0 1007474
18:00+22сз710482 0.0 1006379
21:00+20ссз59550 0.0 1007185